[Iaude] MPEC B107: 2022 QA3 [a=1.15,e=0.52,i=20.6,H=20.59]

mpec at marsden.cfa.harvard.edu mpec at marsden.cfa.harvard.edu
Tue Jan 23 09:37:31 EST 2024


M.P.E.C. 2024-B107                             Issued 2024 January 23, 14:35 UT

     The Minor Planet Electronic Circulars contain information on unusual
         minor planets, routine data on comets and natural satellites,
         and occasional editorial announcements.  They are published
    on behalf of Division F of the International Astronomical Union by the
          Minor Planet Center, Smithsonian Astrophysical Observatory,
                          Cambridge, MA 02138, U.S.A.
			  
             Prepared using the Tamkin Foundation Computer Network

                              MPC at CFA.HARVARD.EDU
            URL https://www.minorplanetcenter.net/    ISSN 1523-6714

                                    2022 QA3                                    


                           Revision to MPEC 2022-Q87                            

Additional Observations:
     K22Q03A  C2013 04 10.58837919 50 54.500+08 37 14.06         23.99GVEB107F51
     K22Q03A  C2013 04 10.59266019 50 54.659+08 37 17.76               VEB107F51
     K22Q03A  C2013 06 27.48854918 24 00.485+11 08 45.81         22.08GVEB107F51
     K22Q03A  C2013 06 27.49808918 23 58.995+11 08 34.99         22.40GVEB107F51
     K22Q03A  C2013 06 27.51967318 23 55.682+11 08 10.84         22.09GVEB107F51
     K22Q03A  C2013 06 29.46284018 19 05.353+10 30 47.06         22.00GVEB107F51
     K22Q03A  C2017 07 06.58971 22 26 09.238-03 03 00.24         22.3 wLEB107F51
     K22Q03A  C2017 07 06.59758 22 26 09.120-03 03 04.87         22.2 wLEB107F51
     K22Q03A  C2017 07 06.60288 22 26 09.060-03 03 07.92         22.3 wLEB107F51
     K22Q03A  C2017 08 18.40671521 22 21.442-20 38 44.71         20.55GVEB107F51
     K22Q03A  C2023 06 17.49810420 07 29.243+06 02 02.09         22.34GVEB107F51
     K22Q03A  C2023 06 17.52109620 07 26.943+06 01 54.98         23.17GVEB107F51

Observer details:
F51 Pan-STARRS 1, Haleakala.  Observers J. Herman, T. Lowe, P. Minguez, A.
    Schultz, I. Smith, J. Bulger, T. Goggia, M. Willman.  Measurers K.
    Chambers, T. de Boer, J. Fairlamb, H. Gao, M. Huber, C.-C. Lin, E.
    Magnier, Y. Ramanjooloo, R. Wainscoat, R. Weryk, S. Chastel, L. Denneau,
    H. Flewelling, E. Lilly, C. Waters.  1.8-m Ritchey-Chretien + CCD.

First and last observations above in comparison with prediction:
Residuals in seconds of arc (or two decimals in degrees), reference and Delta-T
130410 F51 0.01- 0.05-    230617 F51 0.00- 0.00-    MPO750185   +0.02 days

Orbital elements:
2022 QA3                                                 Earth MOID = 0.2599 AU
Epoch 2023 Sept. 13.0 TT = JDT 2460200.5                Veres                   
M 211.58024              (2000.0)            P               Q                  
n   0.79502450     Peri.  337.49793     -0.43947589     -0.86613127             
a   1.1540263      Node   137.51886     +0.86844917     -0.47740581             
e   0.5221927      Incl.   20.64126     +0.22947106     +0.14798758             
P   1.24           H   20.59          G   0.15           U   1                  
Residuals in seconds of arc
130410 F51  0.0   0.2-    220820 807  0.2-  0.2-    220902 F52  0.0   0.0
130410 F51  0.1-  0.5+    220820 568  0.1+  0.0     220902 F52  0.0   0.1+
130627 F51  0.2-  0.0     220820 568  0.1+  0.0     220902 F52  0.0   0.0
130627 F51  0.3-  0.1-    220820 568  0.1+  0.0     220902 F52  0.0   0.1+
130627 F51  0.3+  0.1+    220822 221  0.2-  0.2+    220915 807  0.1+  0.2-
130629 F51  0.1+  0.1-    220822 221  0.2-  0.3-    220915 807  0.2-  0.5-
170706 F51  0.2-  0.0     220822 221  0.2-  0.0     220915 807  0.5+  0.0
170706 F51  0.1-  0.1+    220825 F51  0.0   0.1+    220918 F51  0.0   0.3+
170706 F51  0.2+  0.2+    220825 F51  0.2+  0.1+    220918 F51  0.0   0.0
170818 F51  0.1-  0.1+    220825 F51  0.0   0.0     220918 F51  0.0   0.0
220818 F51  0.1+  0.0     220825 L81  0.3-  0.0     220918 F51  0.0   0.0
220818 F51  0.0   0.0     220825 L81  0.3-  0.3-    220920 F52  0.1-  0.0
220818 F51  0.0   0.1-    220825 L81  0.1-  0.3-    220920 F52  0.0   0.1-
220818 F51  0.1+  0.1+    220827 807  0.5-  0.7-    220920 F52  0.0   0.1+
220818 F51  0.1+  0.0     220827 807  0.4+  0.1+    220920 F52  0.1-  0.2-
220818 F51  0.1+  0.0     220827 807  0.1-  0.4-    220930 807  0.0   0.2-
220818 F52  0.1+  0.1+    220827 807  0.2-  0.2-    220930 807  0.3+  0.5-
220818 F52  0.2+  0.1+    220830 F52  0.2-  0.1+    220930 807  0.2-  0.2-
220820 807  0.3-  0.0     220830 F52  0.1-  0.0     230617 F51  0.1-  0.0
220820 807  0.4-  0.7-    220830 F52  0.1-  0.2+    230617 F51  0.1+  0.0
220820 807  0.7-  0.1+    220830 F52  0.1-  0.0

Ephemeris:
2022 QA3                 a,e,i = 1.15, 0.52, 21                  q = 0.5514
Date    TT    R. A. (2000) Decl.     Delta      r    Elong.  Phase     V
2023 12 24    21 11 50.1 -23 36 58   1.7631  1.2278    42.2    32.6    23.6
...
2024 01 08    21 53 33.3 -21 44 58   1.7156  1.1038    37.1    32.5    23.3
...
2024 01 16    22 17 21.7 -20 22 12   1.6722  1.0323    34.9    33.0    23.2
...
2024 01 22    22 35 59.6 -19 08 03   1.6309  0.9765    33.6    33.9    23.0
2024 01 23    22 39 10.0 -18 54 36   1.6233  0.9670    33.4    34.0    23.0
2024 01 24    22 42 21.6 -18 40 49   1.6155  0.9575    33.2    34.2    23.0
...
2024 01 30    23 01 57.3 -17 10 48   1.5641  0.8997    32.2    35.7    22.8
...
2024 02 07    23 29 18.9 -14 48 59   1.4834  0.8215    31.4    38.7    22.6
...
2024 02 22    00 24 34.1 -08 57 38   1.2919  0.6797    31.2    49.0    22.1

A. U. Tomatic                (C) Copyright 2024 MPC           M.P.E.C. 2024-B107





More information about the Iaude mailing list